Texarkana, AR

7:26 AM CDT on June 26, 2017 (GMT -0500)
Texarkana Regional-Webb

Weather History for KTXK - January, 2013

Change the Weather History Date:

Wednesday, January 30, 2013

  Actual Average Record
Temperature  
Mean Temperature 45 °F 45 °F  
Max Temperature 54 °F 55 °F 81 °F (1917)
Min Temperature 36 °F 35 °F 9 °F (1966)
Degree Days  
Heating Degree Days 20 20  
Month to date heating degree days 552 639  
Since 1 July heating degree days 1450 1706  
Cooling Degree Days 0 0  
Month to date cooling degree days 4 0  
Year to date cooling degree days 4 0  
Moisture  
Dew Point 34 °F    
Average Humidity 64    
Maximum Humidity 83    
Minimum Humidity 45    
Precipitation  
Precipitation T in 0.11 in 2.03 in (1982)
Month to date precipitation 3.67 3.28  
Year to date precipitation 3.67 3.28  
Snow  
Snow 0.00 in - - ()
Month to date snowfall 0.1  
Since 1 July snowfall 2.1  
Snow Depth 0.00 in    
Sea Level Pressure  
Sea Level Pressure 29.87 in    
Wind  
Wind Speed 14 mph (West)    
Max Wind Speed 30 mph    
Max Gust Speed 39 mph    
Visibility 10 miles    
Events Rain    
T = Trace of Precipitation, MM = Missing Value Source: NWS Daily Summary

Daily Weather History Graph

Daily Weather History Graph

Search for Another Location

Airport or City:

Trip Planner

Search our weather history database for the weather conditions in past years. The results will help you decide how hot, cold, wet, or windy it might be!

Date:

Astronomy

Jan. 30, 2013 Rise Set
Actual Time 7:13 AM CST 5:45 PM CST
Civil Twilight 6:47 AM CST 6:12 PM CST
Nautical Twilight 6:17 AM CST 6:41 PM CST
Astronomical Twilight 5:47 AM CST 7:11 PM CST
Moon 9:30 PM CST (1/30) 8:54 AM CST (1/30)
Length of Visible Light 11h 25m
Length of Day
10h 32m
Waning Gibbous, 87% of the Moon is Illuminated
Jan 30
Waning Gibbous
Feb 3
Last Quarter
Feb 10
New
Feb 17
First Quarter
Feb 25
Full

Hourly Weather History & Observations

Time (CST) Temp. Windchill Dew Point Humidity Pressure Visibility Wind Dir Wind Speed Gust Speed Precip Events Conditions
12:53 AM 53.1 °F - 52.0 °F 96% 29.62 in 10.0 mi SSW 8.1 mph - 0.00 in Rain Light Rain
1:53 AM 53.1 °F - 50.0 °F 89% 29.65 in 10.0 mi WSW 10.4 mph - 0.00 in   Mostly Cloudy
2:53 AM 52.0 °F - 46.9 °F 83% 29.63 in 10.0 mi WSW 11.5 mph - N/A   Mostly Cloudy
3:53 AM 52.0 °F - 45.0 °F 77% 29.63 in 10.0 mi WSW 11.5 mph 19.6 mph N/A   Mostly Cloudy
4:53 AM 51.1 °F - 41.0 °F 68% 29.64 in 10.0 mi WSW 12.7 mph - N/A   Partly Cloudy
5:53 AM 50.0 °F - 36.0 °F 59% 29.65 in 10.0 mi West 10.4 mph 20.7 mph N/A   Partly Cloudy
7:53 AM 45.0 °F 38.2 °F 37.9 °F 76% 29.74 in 9.0 mi WNW 15.0 mph 23.0 mph 0.00 in   Clear
8:53 AM 45.0 °F 37.6 °F 37.0 °F 74% 29.77 in 10.0 mi WNW 17.3 mph 27.6 mph 0.00 in Rain Light Rain
9:04 AM 44.6 °F 36.4 °F 37.4 °F 76% 29.78 in 10.0 mi WNW 20.7 mph 29.9 mph 0.00 in   Mostly Cloudy
9:14 AM 46.4 °F 38.7 °F 37.4 °F 71% 29.77 in 10.0 mi WNW 20.7 mph 25.3 mph 0.00 in   Mostly Cloudy
9:37 AM 44.6 °F 35.1 °F 35.6 °F 71% 29.80 in 10.0 mi West 27.6 mph 35.7 mph 0.00 in   Mostly Cloudy
9:53 AM 44.1 °F 35.0 °F 33.1 °F 65% 29.81 in 10.0 mi WNW 24.2 mph 35.7 mph 0.00 in   Overcast
10:03 AM 44.6 °F 36.4 °F 33.8 °F 66% 29.82 in 10.0 mi WNW 20.7 mph 29.9 mph N/A   Overcast
10:53 AM 44.1 °F 35.0 °F 30.9 °F 60% 29.86 in 10.0 mi WNW 24.2 mph 33.4 mph N/A   Overcast
11:53 AM 43.0 °F 34.5 °F 30.9 °F 62% 29.90 in 10.0 mi WNW 19.6 mph 28.8 mph N/A   Overcast
12:53 PM 44.1 °F 36.8 °F 30.0 °F 58% 29.92 in 10.0 mi WNW 16.1 mph 29.9 mph N/A   Overcast
1:53 PM 45.0 °F 36.0 °F 28.0 °F 52% 29.94 in 10.0 mi WNW 25.3 mph 35.7 mph N/A   Mostly Cloudy
2:53 PM 46.0 °F 37.2 °F 27.0 °F 47% 29.96 in 10.0 mi WNW 26.5 mph 35.7 mph N/A   Mostly Cloudy
3:53 PM 46.9 °F - 26.1 °F 44% 29.99 in 10.0 mi West 20.7 mph 28.8 mph N/A   Scattered Clouds
4:53 PM 46.0 °F 39.3 °F 26.1 °F 46% 30.01 in 10.0 mi WNW 16.1 mph 25.3 mph N/A   Partly Cloudy
5:53 PM 44.1 °F 39.5 °F 26.1 °F 49% 30.04 in 10.0 mi West 8.1 mph - N/A   Clear
6:53 PM 41.0 °F 37.1 °F 28.0 °F 60% 30.07 in 10.0 mi WSW 5.8 mph - N/A   Clear
7:53 PM 39.9 °F 36.7 °F 27.0 °F 60% 30.09 in 10.0 mi SW 4.6 mph - N/A   Clear
8:53 PM 41.0 °F 35.8 °F 27.0 °F 57% 30.12 in 10.0 mi West 8.1 mph - N/A   Clear
9:53 PM 41.0 °F 36.4 °F 25.0 °F 53% 30.11 in 10.0 mi West 6.9 mph - N/A   Clear
10:53 PM 37.0 °F 31.6 °F 27.0 °F 67% 30.13 in 10.0 mi SW 6.9 mph - N/A   Clear
11:53 PM 36.0 °F 30.3 °F 27.0 °F 70% 30.12 in 10.0 mi SW 6.9 mph - N/A   Clear